User: anonymous   Login
Location: Memphis
(29.8667°N, 31.2500°E)
Time: 00:01:51
(UTC+00:00)
Language:

SME Rocket - Orbit

View from above orbital plane
View from above orbital plane
View from above satellite
View from above satellite

Ground track
Ground track

The orbit data is extracted from the following two-line orbital elements,

1 12889U 81100C   21129.56219736 -.00000002  00000-0  13751-4 0  9996
2 12889  99.8645 326.7951 1316800  65.4678   0.7026 12.18065130754164
Epoch (UTC): 09 May 2021 13:29:33
Eccentricity: 0.1316800
inclination: 99.8645°
perigee height: 550 km
apogee height: 2651 km
right ascension of ascending node: 326.7951°
argument of perigee: 65.4678°
revolutions per day: 12.18065130
mean anomaly at epoch: 0.7026°
orbit number at epoch: 75416

The dashed part of the orbit path shows where the satellite is in the earth's shadow,  

DLR